Weather in Shakhmatovo

Russia / Chelyabinsk Oblast     54°59′08″N   60°38′08″E
temp.,
°C
wind,
m/s
gust,
m/s
humid.,
%
clouds,
%
prec.,
mm/h
press.,
hPa
HPBL,
m
18 january, tue
tue1823:00−11sw71385100 0.0 1011348
02:00−9sw61284100 0.0 1011346
05:00−9sw61183100 0.0 1013299
08:00−8sw6118588 0.0 1013299
11:00−10ssw612865 0.0 1015301
14:00−8sw6128694 0.0 1016323
17:00−8ssw6128798 0.0 1017250
20:00−7ssw71287100 0.0 1017278
19 january, wed
wed1923:00−7ssw6128798 0.0 1017268
02:00−7ssw51088100 0.0 1018207
05:00−8ssw4890100 0.0 1018152
08:00−7ssw379098 0.0 1019118
11:00−6sw4988100 0.0 1019191
14:00−4ssw4887100 0.0 1019218
17:00−5ssw3690100 0.0 102094
20:00−7sw4889100 0.0 102197
20 january, thu
thu2023:00−8sw498898 0.0 1021122
02:00
05:00−9sw3587100 0.0 102357
08:00−9sw3488100 0.0 102444
11:00
14:00−5sw24885 0.0 1024144
17:00−10sw22935 0.0 102610
20:00−14wsw22955 0.0 102710
21 january, fri
fri2123:00−16wsw22965 0.0 102812
02:00−16wsw329719 0.0 102815
05:00−17wsw229819 0.0 102912
08:00−18wnw22995 0.0 10299
11:00−13w11955 0.0 103026
14:00−7ssw12905 0.0 102975
17:00−13ssw22965 0.0 10319
20:00−16sw229955 0.0 10329
22 january, sat
sat2223:00−17wsw229982 0.0 103311
02:00−18wsw229990 0.0 10339
05:00−19sw229933 0.0 103310
08:00−19sw2210099 0.0 103411
11:00−12sw2293100 0.0 103449
14:00−8ssw2488100 0.0 1034125
17:00−10s2390100 0.0 103538
20:00−12ssw229296 0.0 103627